"Time","Temp","Dewpoint","Humidity","Pressure","Direction","Speed","Gust","Precip","PrecipRate"
"00:04:58","74.8","72.4","92.4","29.81","168","0","0","0.00","0.00"
"00:09:58","74.8","72.6","93","29.81","168","0","0","0.00","0.00"
"00:14:56","74.7","72.5","93","29.81","168","0","0","0.00","0.00"
"00:19:59","74.6","72.4","93","29.81","168","0","0","0.00","0.00"
"00:24:58","74.6","72.4","93","29.81","168","0","0","0.00","0.00"
"00:29:58","74.6","72.4","93","29.81","168","0","0","0.00","0.00"
"00:34:57","74.5","72.3","93","29.81","168","0","0","0.00","0.00"
"00:39:57","74.5","72.3","93.1","29.81","168","0","0","0.00","0.00"
"00:44:57","74.4","72.4","93.5","29.81","168","0","0","0.00","0.00"
"00:49:56","74.4","72.6","94","29.81","168","0","0","0.00","0.00"
"00:54:57","74.4","72.6","94","29.81","168","0","0","0.00","0.00"
"00:59:56","74.4","72.6","94","29.81","168","0","0","0.00","0.00"
"01:04:56","74.4","72.6","94","29.80","168","0","0","0.00","0.00"
"01:09:58","74.4","72.6","94","29.80","168","0.6","3.6","0.00","0.00"
"01:14:58","74.4","72.6","94","29.80","168","0.1","1.2","0.00","0.00"
"01:19:58","74.4","72.6","94","29.80","168","0","0","0.00","0.00"
"01:24:57","74.4","72.6","94","29.80","168","0","0","0.00","0.00"
"01:29:56","74.4","72.6","94","29.80","168","0","0","0.00","0.00"
"01:34:59","74.4","72.6","94","29.80","168","0","0","0.00","0.00"
"01:39:59","74.4","72.6","94","29.80","168","0","0","0.00","0.00"
"01:44:58","74.3","72.5","94","29.80","168","0","0","0.00","0.00"
"01:49:58","74.3","72.5","94","29.78","168","0","0","0.00","0.00"
"01:54:57","74.2","72.4","94","29.78","168","0","0","0.00","0.00"
"01:59:56","74.2","72.4","94","29.78","168","0","0","0.00","0.00"
"02:04:56","74.1","72.3","94","29.77","168","0","0","0.00","0.00"
"02:09:59","74.1","72.3","94","29.77","168","0","0","0.00","0.00"
"02:14:59","74","72.2","94","29.77","168","0","0","0.00","0.00"
"02:19:58","73.9","72.1","94","29.77","168","0","0","0.00","0.00"
"02:24:57","73.9","72.3","94.5","29.77","168","0","0","0.00","0.00"
"02:29:57","73.9","72.2","94.5","29.77","168","0","0","0.00","0.00"
"02:34:56","73.7","71.9","94","29.77","168","0","0","0.00","0.00"
"02:39:56","73.6","72.1","95","29.77","168","0","0","0.00","0.00"
"02:44:56","73.6","72.1","95","29.77","168","0","0","0.00","0.00"
"02:49:59","73.6","72.1","95","29.76","168","0","0","0.00","0.00"
"02:54:58","73.7","72.2","95","29.76","168","0","0","0.00","0.00"
"02:59:58","73.7","72.2","95.1","29.76","168","0.4","2.4","0.00","0.00"
"03:04:59","73.7","72.5","96","29.75","168","0.9","3.6","0.00","0.00"
"03:09:58","73.7","72.5","96","29.75","168","1.3","4.8","0.00","0.00"
"03:14:57","73.8","72.6","96","29.75","155","1.4","4.8","0.00","0.00"
"03:19:57","73.8","72.6","96","29.75","155","0.5","2.4","0.00","0.00"
"03:24:56","73.8","72.6","96","29.75","155","0","0","0.00","0.00"
"03:29:59","73.8","72.6","96","29.75","155","0.3","2.4","0.00","0.00"
"03:34:58","73.8","72.6","96","29.75","155","0.6","2.4","0.00","0.00"
"03:39:59","73.8","72.6","96","29.75","155","0.1","1.2","0.00","0.00"
"03:44:58","73.8","72.6","96","29.75","170","0.4","4.8","0.00","0.00"
"03:49:57","73.8","72.6","96","29.75","170","1.5","2.4","0.00","0.00"
"03:54:58","73.8","72.6","96","29.75","170","0.7","2.4","0.00","0.00"
"03:59:56","73.8","72.6","96","29.75","170","0.5","3.6","0.00","0.00"
"04:04:56","73.8","72.6","96","29.75","170","0.4","3.6","0.00","0.00"
"04:09:59","73.7","72.5","96","29.75","170","1.4","3.6","0.00","0.00"
"04:14:59","73.7","72.5","96","29.75","170","1.1","3.6","0.00","0.00"
"04:19:57","73.7","72.5","96","29.74","170","1.1","3.6","0.00","0.00"
"04:24:56","73.7","72.5","96","29.74","170","0.2","2.4","0.00","0.00"
"04:29:58","73.6","72.4","96","29.74","170","0.3","2.4","0.00","0.00"
"04:34:57","73.6","72.4","96","29.73","170","0","2.3","0.00","0.00"
"04:39:58","73.6","72.4","96","29.73","170","0.3","2.4","0.00","0.00"
"04:44:56","73.5","72.3","96","29.73","170","0","0","0.00","0.00"
"04:49:59","73.5","72.3","96","29.73","170","0","0","0.00","0.00"
"04:54:58","73.4","72.2","96","29.73","170","0","0","0.00","0.00"
"04:59:58","73.3","72.1","96","29.73","170","0","0","0.00","0.00"
"05:04:57","73.2","72","96","29.72","170","0","0","0.00","0.00"
"05:09:56","73.1","71.9","96","29.72","170","0","0","0.00","0.00"
"05:14:56","73","71.8","96","29.73","170","0","0","0.00","0.00"
"05:19:57","72.9","71.7","96","29.73","170","0","0","0.00","0.00"
"05:24:56","72.8","71.6","96","29.73","170","0","0","0.00","0.00"
"05:29:59","72.8","71.6","96","29.74","245","1.4","4.8","0.00","0.00"
"05:34:58","72.8","71.6","96","29.74","328","1.5","4.6","0.00","0.00"
"05:39:58","72.8","71.6","96","29.74","324","0.4","2.4","0.00","0.00"
"05:44:57","72.8","71.6","96","29.74","321","0.9","2.4","0.00","0.00"
"05:49:57","72.8","71.6","96","29.74","315","0.4","2.4","0.00","0.00"
"05:54:56","72.8","71.6","96","29.74","315","0","0","0.00","0.00"
"05:59:59","72.8","71.6","96","29.75","315","0.1","3.6","0.00","0.00"
"06:04:59","72.8","71.6","96","29.75","315","0.7","3.5","0.00","0.00"
"06:09:59","72.7","71.5","96","29.75","314","0.7","2.4","0.00","0.00"
"06:14:59","72.7","71.3","95.4","29.75","336","1.4","6","0.00","0.00"
"06:19:58","72.8","71.3","94.9","29.75","337","0.8","3.6","0.00","0.00"
"06:24:57","72.8","71","94","29.75","333","0.8","3.5","0.00","0.00"
"06:29:56","72.8","70.8","93.1","29.75","276","1.1","4.8","0.00","0.00"
"06:34:59","72.9","70.8","93","29.75","265","0.4","3.6","0.00","0.00"
"06:39:59","72.9","70.4","92","29.75","314","1.6","4.8","0.00","0.00"
"06:44:59","73","70.3","91.4","29.76","316","1.1","4.8","0.00","0.00"
"06:49:58","73","70.2","91","29.76","316","0.5","2.4","0.00","0.00"
"06:54:57","72.3","69.9","92.2","29.76","1","1.7","7.2","0.00","0.00"
"06:59:57","72.1","69.9","92.8","29.77","360","1.2","4.6","0.00","0.00"
"07:04:56","72.2","69.7","92","29.77","357","0.7","3.6","0.00","0.00"
"07:09:59","72.4","69.8","91.7","29.77","355","1.2","4.8","0.00","0.00"
"07:14:59","72.6","69.8","91","29.77","351","1.4","4.6","0.00","0.00"
"07:19:59","72.7","69.8","90.7","29.77","351","2.5","7.2","0.00","0.00"
"07:24:57","72.8","69.8","90.2","29.77","313","1.2","3.6","0.00","0.00"
"07:29:59","72.9","69.9","90.2","29.78","325","0.3","3.5","0.00","0.00"
"07:34:57","72.9","69.8","90","29.78","327","1.7","4.8","0.00","0.00"
"07:39:57","73","69.9","90","29.78","354","0.5","2.4","0.00","0.00"
"07:44:56","73","69.8","89.7","29.78","350","1.6","4.8","0.00","0.00"
"07:49:59","73.1","69.7","89.2","29.78","344","1.7","4.8","0.00","0.00"
"07:54:58","73.2","69.8","89","29.78","348","2.3","7.2","0.00","0.00"
"07:59:57","73.2","69.8","89","29.78","327","0.6","3.5","0.00","0.00"
"08:04:57","73.3","69.9","89","29.78","328","0.9","4.8","0.00","0.00"
"08:09:59","73.3","69.9","89","29.78","323","0.9","4.6","0.00","0.00"
"08:14:59","73.3","69.9","89","29.79","312","0.7","3.5","0.00","0.00"
"08:19:58","73.4","69.6","88","29.79","319","1.2","4.8","0.00","0.00"
"08:24:56","73.5","69.7","88","29.79","327","1.7","4.8","0.00","0.00"
"08:29:59","73.6","69.7","87.9","29.80","342","0.7","3.6","0.00","0.00"
"08:34:57","73.6","69.5","87","29.80","4","1.2","7.2","0.00","0.00"
"08:39:57","73.8","69.4","86.4","29.80","346","1.8","8.4","0.00","0.00"
"08:44:56","73.9","68.9","84.5","29.80","334","3.1","12","0.00","0.00"
"08:49:58","74.1","69","84.2","29.80","345","2.9","10.8","0.00","0.00"
"08:54:57","74","68.5","83","29.80","322","2.9","10.4","0.00","0.00"
"08:59:59","74.1","68.4","82.4","29.80","301","2.1","6","0.00","0.00"
"09:04:59","74.3","68.5","82.1","29.80","320","1.6","4.8","0.00","0.00"
"09:09:57","74.7","68.6","81.3","29.80","328","2.4","8.4","0.00","0.00"
"09:14:57","75","68.1","79.1","29.80","347","4.4","10.8","0.00","0.00"
"09:19:57","75.2","67.8","77.8","29.80","336","3.4","12","0.00","0.00"
"09:24:58","75.5","67.9","77.2","29.80","333","2","6","0.00","0.00"
"09:29:55","75.7","67.5","75.7","29.80","350","2.9","7.2","0.00","0.00"
"09:34:59","75.8","67.2","74.8","29.80","337","3.2","8.4","0.00","0.00"
"09:39:59","76","67.3","74.6","29.80","309","2.5","6","0.00","0.00"
"09:44:58","76.3","67.3","73.8","29.80","340","3.6","10.8","0.00","0.00"
"09:49:57","76.6","66.8","71.8","29.80","336","4.5","15","0.00","0.00"
"09:54:56","76.5","65.3","68.2","29.80","322","4.9","12","0.00","0.00"
"09:59:56","77","65.7","68.2","29.81","349","3.4","9.2","0.00","0.00"
"10:04:59","77.8","65.6","66.2","29.81","341","3","7.2","0.00","0.00"
"10:09:58","78.1","65.4","65.1","29.81","343","3.3","8.4","0.00","0.00"
"10:14:58","78.5","64.5","62.2","29.81","313","5.2","13.2","0.00","0.00"
"10:19:59","79","65.3","62.9","29.80","340","4.7","15","0.00","0.00"
"10:24:56","79","64.7","61.5","29.80","348","5.4","17.3","0.00","0.00"
"10:29:57","79.5","64.8","60.7","29.81","358","5","10.8","0.00","0.00"
"10:34:58","79.8","64.1","58.8","29.81","306","5.3","16.8","0.00","0.00"
"10:39:56","79.9","64.3","59","29.81","321","4.5","13.2","0.00","0.00"
"10:44:57","80.2","65.2","60.3","29.81","305","3.8","13.2","0.00","0.00"
"10:49:58","80.5","64.1","57.6","29.81","326","5.7","15","0.00","0.00"
"10:54:56","80.3","64.5","58.5","29.81","316","3.5","12","0.00","0.00"
"10:59:57","80.5","64.4","58","29.81","345","4.9","11.5","0.00","0.00"
"11:04:58","80.6","64.6","58.2","29.80","341","4.8","12","0.00","0.00"
"11:09:59","80.9","64.7","58","29.80","345","3.7","12","0.00","0.00"
"11:14:57","81.3","64.7","57.2","29.80","337","4.1","16.1","0.00","0.00"
"11:19:58","81.5","64.9","57.2","29.80","352","4.2","13.2","0.00","0.00"
"11:24:59","81.7","64.8","56.6","29.80","47","4.2","12","0.00","0.00"
"11:29:59","82.1","64.6","55.6","29.80","335","4.6","13.2","0.00","0.00"
"11:34:56","82","64.2","55","29.80","341","6.5","15","0.00","0.00"
"11:39:58","81.7","64.9","56.8","29.80","345","4.2","13.2","0.00","0.00"
"11:44:59","81.8","64.9","56.7","29.81","336","5.2","13.2","0.00","0.00"
"11:49:57","81.7","65.1","57.3","29.81","350","4.8","17.3","0.00","0.00"
"11:54:58","81.8","64.9","56.7","29.81","335","5.3","14.4","0.00","0.00"
"11:59:56","81.8","65.3","57.3","29.81","342","5","12","0.00","0.00"
"12:04:58","82.3","65.7","57.3","29.80","296","2.4","8.1","0.00","0.00"
"12:09:58","82.4","65.2","56.3","29.80","332","5.5","18.4","0.00","0.00"
"12:14:57","81.8","65.3","57.5","29.80","335","5.3","13.2","0.00","0.00"
"12:19:56","81.9","65.6","57.8","29.80","341","5.9","18.4","0.00","0.00"
"12:24:57","81.7","65.4","57.9","29.80","319","5.7","17.3","0.00","0.00"
"12:29:59","82.1","65.7","57.7","29.80","305","5.1","12","0.00","0.00"
"12:34:56","82.4","66.2","58.1","29.80","336","4.8","12","0.00","0.00"
"12:39:56","83.4","66.6","57.1","29.80","333","3.7","9.6","0.00","0.00"
"12:44:58","83.6","66.8","57.1","29.80","313","4.4","12","0.00","0.00"
"12:49:59","83.9","66.3","55.7","29.80","326","4.4","14.4","0.00","0.00"
"12:54:57","83.6","65.5","54.7","29.80","335","7.7","16.1","0.00","0.00"
"12:59:55","83.1","65.9","56.3","29.80","305","4","10.8","0.00","0.00"
"13:04:57","83.3","65.6","55.3","29.80","250","4.5","12","0.00","0.00"
"13:09:57","83.4","65.4","54.7","29.80","288","4","13.2","0.00","0.00"
"13:14:56","83.5","65.8","55.5","29.80","274","3.1","6.9","0.00","0.00"
"13:19:58","84.5","66.9","55.8","29.80","261","2.6","12","0.00","0.00"
"13:24:57","84.9","66.3","53.7","29.80","292","3.1","10.8","0.00","0.00"
"13:29:58","84.8","65.9","53.3","29.80","343","4.7","15","0.00","0.00"
"13:34:56","84.4","65.5","53.3","29.79","331","5.1","12","0.00","0.00"
"13:39:58","83.9","64.7","52.6","29.79","298","5.7","13.2","0.00","0.00"
"13:44:56","83.9","65.2","53.5","29.79","311","5","16.1","0.00","0.00"
"13:49:58","84.8","65.8","53.1","29.79","338","5","13.2","0.00","0.00"
"13:54:56","84.7","65.1","52","29.79","297","4.5","12.7","0.00","0.00"
"13:59:58","84.8","65.4","52.3","29.79","298","3.3","13.2","0.00","0.00"
"14:04:56","84.8","65","51.5","29.78","303","4.3","12.7","0.00","0.00"
"14:09:56","85","64.8","50.9","29.78","343","4.6","12","0.00","0.00"
"14:14:56","84.9","64.9","51.2","29.78","313","4.3","10.8","0.00","0.00"
"14:19:58","84.7","64","50.1","29.78","316","4.9","12","0.00","0.00"
"14:24:56","84.7","64.5","50.9","29.78","246","3.9","15.6","0.00","0.00"
"14:29:58","84.5","64.1","50.4","29.78","301","5.2","18","0.00","0.00"
"14:34:56","85","64.7","50.8","29.77","291","4.8","18.4","0.00","0.00"
"14:39:59","85.3","64.6","49.9","29.77","273","4.3","13.2","0.00","0.00"
"14:44:58","85.4","64.4","49.7","29.77","303","5.1","13.2","0.00","0.00"
"14:49:56","85.4","64.4","49.5","29.77","339","5","15","0.00","0.00"
"14:54:58","85.5","64.2","49","29.77","335","5.7","16.1","0.00","0.00"
"14:59:57","85.8","64.1","48.4","29.77","259","5.4","10.8","0.00","0.00"
"15:04:59","85.5","64.1","48.8","29.76","286","5.1","15.6","0.00","0.00"
"15:09:59","85.6","64","48.5","29.76","330","3.6","16.1","0.00","0.00"
"15:14:59","86.6","64.4","47.7","29.76","324","4.8","12","0.00","0.00"
"15:19:57","86.6","64.1","47.2","29.76","234","3.2","8.4","0.00","0.00"
"15:24:59","86.6","64.2","47.3","29.76","327","6","16.1","0.00","0.00"
"15:29:57","86","64.2","48.3","29.76","324","3.8","12","0.00","0.00"
"15:34:56","85.7","63.9","48.2","29.75","347","5.5","14.4","0.00","0.00"
"15:39:59","85","64","49.4","29.75","321","3.1","15","0.00","0.00"
"15:44:57","84.8","63.9","49.6","29.75","315","3.5","8.4","0.00","0.00"
"15:49:56","85.3","64.8","50.5","29.75","347","5","20.4","0.00","0.00"
"15:54:58","85.6","64.1","48.7","29.75","327","4.4","15","0.00","0.00"
"15:59:56","84.9","63.6","48.9","29.75","312","4","16.8","0.00","0.00"
"16:04:58","84.3","63.4","49.6","29.75","331","5.8","17.3","0.00","0.00"
"16:09:59","84","63.2","49.7","29.75","342","4.9","12.7","0.00","0.00"
"16:14:59","84","62.9","49.1","29.75","350","3.1","11.5","0.00","0.00"
"16:19:57","84.2","63.4","49.8","29.75","345","4.8","15","0.00","0.00"
"16:24:59","84.3","62.4","47.8","29.75","337","5.7","17.3","0.00","0.00"
"16:29:58","84.1","62.3","48","29.75","326","3.3","8.1","0.00","0.00"
"16:34:56","84.4","62.5","47.8","29.75","331","5.2","13.2","0.00","0.00"
"16:39:55","84.5","62.7","48","29.75","330","4.2","13.2","0.00","0.00"
"16:44:58","84.7","62.7","47.7","29.75","343","4.5","12.7","0.00","0.00"
"16:49:57","85","62.5","47","29.75","351","5","15.6","0.00","0.00"
"16:54:59","84.7","61.9","46.5","29.75","308","6.6","17.3","0.00","0.00"
"16:59:57","84.7","62.3","47.1","29.75","328","4.1","15","0.00","0.00"
"17:04:59","84.8","61.8","46.1","29.75","342","6.9","17.3","0.00","0.00"
"17:09:59","84.3","61.2","45.9","29.75","342","5.1","15","0.00","0.00"
"17:14:58","84.1","61.7","46.9","29.76","343","5.1","14.4","0.00","0.00"
"17:19:57","84","61.4","46.7","29.76","326","5.7","17.3","0.00","0.00"
"17:24:59","83.7","61.7","47.7","29.76","327","3.1","15","0.00","0.00"
"17:29:58","83.5","61.9","48.3","29.76","338","3.6","10.8","0.00","0.00"
"17:34:56","83.6","61.7","47.8","29.76","308","3.9","15.6","0.00","0.00"
"17:39:56","83.4","61.5","47.7","29.76","301","2.5","16.1","0.00","0.00"
"17:44:58","83.1","60.9","47.2","29.77","301","3.5","13.2","0.00","0.00"
"17:49:56","82.7","61","48","29.77","346","4.4","12.7","0.00","0.00"
"17:54:58","82.4","61.3","49","29.77","329","3","10.8","0.00","0.00"
"17:59:57","82.1","61.2","49.3","29.77","347","3.9","15","0.00","0.00"
"18:04:59","81.9","60.9","49","29.77","336","4","12","0.00","0.00"
"18:09:59","81.6","61.2","50.1","29.77","287","1","4.8","0.00","0.00"
"18:14:56","81.3","60.9","50","29.77","338","3.4","13.2","0.00","0.00"
"18:19:59","81.1","60.7","50.1","29.77","337","3.8","12","0.00","0.00"
"18:24:57","80.9","60.8","50.4","29.77","348","3.5","15.6","0.00","0.00"
"18:29:59","80.7","60.6","50.4","29.77","339","3.5","16.1","0.00","0.00"
"18:34:58","80.4","60.6","51","29.77","320","3","12","0.00","0.00"
"18:39:57","80.1","60.4","51.2","29.77","343","3.3","15","0.00","0.00"
"18:44:59","79.7","60.4","51.8","29.78","326","1.9","8.4","0.00","0.00"
"18:49:58","79.5","60.2","51.8","29.78","345","5.6","15","0.00","0.00"
"18:54:56","79.3","60.1","52","29.78","349","4.6","13.2","0.00","0.00"
"18:59:58","79","59.8","51.9","29.78","349","6","17.3","0.00","0.00"
"19:04:56","78.8","59.6","51.8","29.78","349","4.9","12.7","0.00","0.00"
"19:09:59","78.5","59.3","51.7","29.78","346","3.7","13.2","0.00","0.00"
"19:14:57","78.3","59.1","51.8","29.78","334","2.9","12.7","0.00","0.00"
"19:19:59","78.1","59.1","52.1","29.78","344","4.2","19.6","0.00","0.00"
"19:24:56","77.9","59.3","52.8","29.78","334","3","7.2","0.00","0.00"
"19:29:57","77.7","59.1","52.7","29.79","348","2.2","7.2","0.00","0.00"
"19:34:59","77.5","59","53","29.79","348","0.8","6.9","0.00","0.00"
"19:39:58","77.2","59","53.5","29.79","343","3.2","12","0.00","0.00"
"19:44:59","77","58.9","53.7","29.80","343","3.2","14.4","0.00","0.00"
"19:49:57","76.9","59","54","29.80","337","2.9","15","0.00","0.00"
"19:54:58","76.7","58.8","54","29.80","337","4.1","13.2","0.00","0.00"
"19:59:57","76.5","58.9","54.6","29.80","319","1.7","8.1","0.00","0.00"
"20:04:57","76.3","58.9","55","29.80","326","1.6","8.4","0.00","0.00"
"20:09:56","76","59","55.7","29.80","340","2.2","6","0.00","0.00"
"20:14:58","75.5","59.2","57","29.80","358","2","6","0.00","0.00"
"20:19:56","74.1","58.9","59.2","29.80","353","2.6","10.8","0.00","0.00"
"20:24:57","73.9","58.9","59.4","29.80","331","4.5","12","0.00","0.00"
"20:29:59","74","59","59.5","29.81","343","1.9","8.4","0.00","0.00"
"20:34:56","73.8","58.8","59.5","29.81","343","2","4.8","0.00","0.00"
"20:39:59","74.4","58.8","58.2","29.81","347","2.4","8.4","0.00","0.00"
"20:44:56","74.6","58.8","58","29.82","350","1.3","4.8","0.00","0.00"
"20:49:58","74.5","58.8","58.2","29.82","348","2.5","6","0.00","0.00"
"20:54:59","74.3","58.9","58.9","29.82","349","3.3","7.2","0.00","0.00"
"20:59:57","74.1","58.9","59","29.82","355","1.8","7.2","0.00","0.00"
"21:04:57","74","58.8","59.1","29.82","349","1.6","6","0.00","0.00"
"21:09:56","73.8","59","60","29.82","350","2","6","0.00","0.00"
"21:14:59","73.6","58.9","60","29.82","345","2.4","8.4","0.00","0.00"
"21:19:57","73.5","58.8","60.2","29.82","353","4.2","12","0.00","0.00"
"21:24:58","73.4","59","60.8","29.82","335","3.3","9.6","0.00","0.00"
"21:29:56","73.3","59","61","29.82","331","3.9","10.8","0.00","0.00"
"21:34:58","73.2","58.9","61","29.82","326","2.4","9.2","0.00","0.00"
"21:39:57","73","58.8","61","29.82","358","2.9","12","0.00","0.00"
"21:44:57","72.9","58.9","61.7","29.83","349","3.8","11.5","0.00","0.00"
"21:49:57","72.7","58.9","62","29.83","338","2.6","9.2","0.00","0.00"
"21:54:58","72.5","58.7","62","29.83","336","2.3","9.6","0.00","0.00"
"21:59:56","72.3","58.9","62.8","29.83","343","1.9","7.2","0.00","0.00"
"22:04:56","72.1","58.8","63","29.83","352","2","6.9","0.00","0.00"
"22:09:59","71.9","58.8","63.3","29.83","343","2.7","8.4","0.00","0.00"
"22:14:57","71.7","58.9","64","29.83","307","2.1","8.1","0.00","0.00"
"22:19:59","71.6","58.8","64","29.83","344","1.6","6","0.00","0.00"
"22:24:56","71.5","58.7","64","29.83","349","1.9","8.4","0.00","0.00"
"22:29:58","71.4","58.8","64.5","29.84","349","2.1","6.9","0.00","0.00"
"22:34:59","71.2","58.8","64.8","29.84","349","2.1","6","0.00","0.00"
"22:39:58","71.1","58.7","65","29.84","333","1.9","7.2","0.00","0.00"
"22:44:55","70.9","58.5","65","29.85","349","1.6","4.8","0.00","0.00"
"22:49:57","70.8","58.6","65.4","29.85","346","2.6","7.2","0.00","0.00"
"22:54:59","70.7","58.8","66","29.85","350","3.1","10.8","0.00","0.00"
"22:59:56","70.6","58.6","65.8","29.86","337","3.2","10.4","0.00","0.00"
"23:04:57","70.5","58.4","65.5","29.86","335","3","6","0.00","0.00"
"23:09:56","70.5","58.2","65.2","29.86","347","2.5","8.4","0.00","0.00"
"23:14:58","70.4","58.1","65","29.86","344","1.8","4.8","0.00","0.00"
"23:19:56","70.4","58.2","65.2","29.86","338","1.8","6","0.00","0.00"
"23:24:57","70.3","58.2","65.4","29.86","346","2.4","7.2","0.00","0.00"
"23:29:59","70.2","58.3","66","29.87","349","2","6","0.00","0.00"
"23:34:56","70.1","58.2","66","29.87","348","2","8.4","0.00","0.00"
"23:39:59","70","58.2","66.4","29.87","350","2","8.1","0.00","0.00"
"23:44:57","69.8","58.2","66.7","29.87","329","2.3","9.6","0.00","0.00"
"23:49:59","69.7","58.3","67","29.87","348","3.2","8.4","0.00","0.00"
"23:54:56","69.6","58.2","67","29.87","348","1.4","5.8","0.00","0.00"
